sat.trackr.live / text

‹ back to catalog

CANX-2

NORAD 32790 · 2008-021H

PAYLOAD ACTIVE UNKNOWN

§ Identity

Operator
Country
CA
Launch date
2008-04-28
Launch site
SRILR
Launch vehicle
Mass (kg)
RCS (m²)
0.07

Purposes: tech_demo

External: N2YO · Heavens-Above · Gunter

§ Orbital elements

Epoch: 2026-09-19T09:02:11.561280Z

Period
95.61 min
Inclination
97.8747°
Eccentricity
0.0011661
Mean motion
15.06167348 rev/d
Perigee alt
539.8 km
Apogee alt
556.0 km
Semi-major
6,926.1 km
B*
2.0477e-4
RAAN
244.0777°
Arg perigee
86.3399°
Mean anomaly
273.9161°
Rev number
99,898

§ Raw data

CANX-21 32790U 08021H   26262.37652270  .00002936  00000+0  20477-3 0  99942 32790  97.8747 244.0777 0011661  86.3399 273.9161 15.06167348998982

JSON: /api/v1/satellites/32790 · /tle

For live sub-satellite position, see the globe view (requires WebGL).

§ Visibility from observer

Set your observer location to see the next 7 days of passes ≥ 10°. The values pass through the URL so the page stays shareable.

No JS? Fill the form by hand. The geolocation button needs JavaScript.